[[{"header":{"parameterUnit":"m.s-1","parameterCategory":1,"la1":30.2991,"la2":30.254,"lo1":-89.0895,"lo2":-89.0444,"dy":0.0017,"dx":0.0017,"nx":28,"ny":28,"refTime":"2025-02-09T03:00:00:Z","depth":0,"parameterNumber":2,"parameterNumberName":"U-component_of_WINDS"},"data":[0,0,0,0,0,0,0,0,0,0,0,0,0,0,0,0,0,0,0,0,0,0,0,0,0,0,0,0,0,0,0,0,0,0,0,0,0,0,0,0,0,0,0,0,0,0,0,0,0,0,0,0,0,0,0,0,0,0,-0.9732,-0.9732,0,-0.9685,-0.9685,-0.9684,-0.9639,-0.9638,-0.9638,-0.9637,-0.9588,-0.9588,-0.9587,0,0,0,0,0,0,0,0,0,0,0,0,0,-0.9785,-0.9784,-0.9732,-0.9732,-0.9731,-0.9685,-0.9685,-0.9684,-0.9639,-0.9638,-0.9637,-0.9637,-0.9589,-0.9588,-0.9587,0,0,0,0,0,0,0,0,0,0,0,0,0,-0.9752,-0.9784,-0.9732,-0.9703,-0.97,-0.9685,-0.9685,-0.9684,-0.9639,-0.9638,-0.9637,-0.9636,-0.9589,-0.9588,-0.9587,-0.9597,0,0,-0.9583,-0.9583,0,0,0,0,0,0,0,0,-0.9754,-0.975,-0.9708,-0.9705,-0.9702,-0.9667,-0.9685,-0.9655,-0.9639,-0.9662,-0.9637,-0.9636,-0.9615,-0.9612,-0.9605,-0.9595,-0.9593,-0.9583,-0.9582,-0.9582,-0.9582,0,0,0,0,0,0,0,-0.9756,-0.9752,-0.9714,-0.9707,-0.9704,-0.9693,-0.9687,-0.9679,-0.9644,-0.966,-0.9657,-0.9652,-0.9613,-0.9606,-0.9603,-0.9592,-0.9583,-0.9582,-0.9581,-0.9581,-0.959,-0.9591,0,0,0,0,0,0,-0.9763,-0.9754,-0.9715,-0.9712,-0.9726,-0.9693,-0.9686,-0.9679,-0.9644,-0.9638,-0.9652,-0.965,-0.9608,-0.9605,-0.9602,-0.9612,-0.9582,-0.9581,-0.958,-0.9589,-0.959,-0.9591,0,0,0,0,0,0,-0.9764,-0.976,-0.9717,-0.9732,-0.9726,-0.9693,-0.9685,-0.9678,-0.9671,-0.9638,-0.9632,-0.9652,-0.9608,-0.9603,-0.9599,-0.961,-0.958,-0.9579,-0.9588,-0.959,-0.9591,-0.9634,0,0,0,0,0,0,-0.9766,-0.9761,-0.9764,-0.9733,-0.9725,-0.9715,-0.9685,-0.9678,-0.9669,-0.9665,-0.9636,-0.963,-0.9607,-0.9601,-0.9598,-0.9608,-0.9578,-0.9587,-0.9589,-0.9591,-0.9631,-0.9637,-0.9641,0,0,0,0,0,-0.9768,-0.9777,-0.9764,-0.976,-0.9729,-0.9716,-0.9712,-0.9685,-0.967,-0.9674,-0.9653,-0.9631,-0.961,-0.9601,-0.9597,-0.9607,-0.9586,-0.9588,-0.959,-0.9629,-0.9636,-0.9641,0,0,0,0,0,0,-0.981,-0.9773,-0.9758,-0.9757,-0.974,-0.9708,-0.9711,-0.9692,-0.9678,-0.9675,-0.9642,-0.9636,-0.9636,-0.9621,-0.9612,-0.9616,-0.9595,-0.9596,-0.9626,-0.9632,-0.9636,-0.964,-0.9578,0,0,0,0,0,-0.982,-0.9812,-0.978,-0.9783,-0.9775,-0.9745,-0.9738,-0.9719,-0.97,-0.9692,-0.9671,-0.9653,-0.9643,-0.9636,-0.9625,-0.9629,-0.9623,-0.9635,-0.9639,-0.9644,-0.9645,-0.9648,-0.9653,-0.9598,-0.9598,-0.9598,0,0,-0.9838,-0.9817,-0.9814,-0.9791,-0.9775,-0.9768,-0.9739,-0.9733,-0.9728,-0.9691,-0.9686,-0.9671,-0.9649,-0.965,-0.9649,-0.9637,-0.9659,-0.9646,-0.965,-0.9649,-0.9651,-0.9656,-0.966,-0.96,-0.9599,-0.9599,0,0,-0.987,-0.9853,-0.9854,-0.9839,-0.9816,-0.9797,-0.9797,-0.9768,-0.9757,-0.9751,-0.9724,-0.9718,-0.97,-0.9686,-0.9677,-0.9706,-0.9685,-0.9703,-0.9728,-0.9731,-0.9736,-0.9739,-0.975,-0.9754,-0.9705,-0.9705,-0.9705,0,-0.9896,-0.9885,-0.9857,-0.9853,-0.9844,-0.9811,-0.9812,-0.98,-0.9774,-0.9769,-0.9757,-0.9735,-0.9718,-0.9715,-0.9723,-0.9716,-0.9716,-0.9706,-0.9737,-0.9741,-0.9744,-0.9754,-0.9758,-0.9707,-0.9707,-0.9707,-0.9706,0,-0.9919,-0.9912,-0.9916,-0.9893,-0.9884,-0.9883,-0.9855,-0.985,-0.9832,-0.9814,-0.981,-0.9789,-0.9773,-0.9771,-0.9753,-0.9767,-0.9761,-0.9743,-0.9721,-0.9752,-0.9761,-0.9764,-0.971,-0.971,-0.9709,-0.9708,0,0,-0.9974,-0.9937,-0.9939,-0.9928,-0.9902,-0.9896,-0.9894,-0.9879,-0.9876,-0.986,-0.9858,-0.9845,-0.9829,-0.9819,-0.9799,-0.9802,-0.9827,-0.9784,-0.9783,-0.9793,-0.9842,-0.9855,-0.986,-0.9814,-0.9815,-0.9815,-0.9844,0,-1.0001,-0.9995,-0.9971,-0.9972,-0.9966,-0.9936,-0.9935,-0.9919,-0.9902,-0.9895,-0.9877,-0.9868,-0.9848,-0.9842,-0.9843,-0.9824,-0.9837,-0.9822,-0.9812,-0.9812,-0.9818,-0.9865,-0.9878,-0.9907,-0.9847,-0.9848,-0.9848,0,-1.0031,-1.0018,-1.0019,-0.9995,-0.9991,-0.999,-0.9975,-0.9968,-0.995,-0.9938,-0.9928,-0.9907,-0.9904,-0.9884,-0.988,-0.987,-0.9865,-0.9856,-0.9856,-0.9854,-0.9832,-0.9864,-0.9915,-0.9919,-0.9853,-0.9853,-0.9853,0,-1.0072,-1.0055,-1.0054,-1.0046,-1.0016,-1.0017,-1.0005,-0.9986,-0.9979,-0.9966,-0.9962,-0.9949,-0.9942,-0.9933,-0.9909,-0.9897,-0.9909,-0.9886,-0.9899,-0.99,-0.9902,-0.9902,-0.9953,-0.9899,-0.9899,-0.9899,-0.9899,0,-1.0105,-1.0107,-1.0072,-1.0071,-1.0073,-1.0045,-1.0048,-1.0033,-1.0017,-1.0014,-0.9987,-0.9984,-0.9953,-0.9948,-0.9929,-0.993,-0.9926,-0.9917,-0.9912,-0.9919,-0.9921,-0.9915,-0.9913,-0.99,-0.99,-0.99,-0.99,0,-1.015,-1.0127,-1.0124,-1.0097,-1.009,-1.0093,-1.007,-1.0069,-1.0052,-1.0048,-1.0045,-1.0018,-1.001,-0.9986,-0.9971,-0.9959,-0.9965,-0.9956,-0.9971,-0.9968,-0.9983,-0.9982,-1.0032,-1.0037,-0.998,-0.9981,-0.9981,0,-1.0173,-1.0174,-1.0147,-1.0143,-1.0132,-1.0126,-1.0119,-1.0093,-1.0087,-1.0067,-1.0069,-1.0059,-1.0049,-1.0038,-1.0017,-1.0007,-0.9997,-1.0015,-0.9995,-1.0003,-0.9998,-0.9998,-0.9998,-1.0019,-1.002,-1.0021,-1.0021,0,-1.0215,-1.0204,-1.0195,-1.0183,-1.0175,-1.0164,-1.0152,-1.015,-1.0121,-1.0116,-1.0107,-1.01,-1.0086,-1.0077,-1.0063,-1.0051,-1.0032,-1.0028,-1.003,-1.0038,-1.0047,-1.0043,-0.9983,-1.0027,-1.0026,-1.0026,-1.0025,-1.0025,-1.025,-1.025,-1.0232,-1.0223,-1.0211,-1.0201,-1.0198,-1.0182,-1.0174,-1.0161,-1.0146,-1.014,-1.0123,-1.0103,-1.0093,-1.0088,-1.0077,-1.0081,-1.0081,-1.0083,-1.0087,-1.0048,-1.0085,-1.0085,-1.0085,-1.0085,-1.0085,0,-1.0291,-1.0279,-1.0271,-1.0255,-1.0249,-1.0231,-1.0217,-1.0213,-1.0208,-1.0194,-1.0186,-1.0177,-1.0168,-1.0148,-1.0137,-1.0138,-1.0129,-1.0136,-1.0135,-1.0133,-1.0096,-1.0095,-1.0143,-1.0143,-1.0143,-1.0143,-1.0143,-1.0143,-1.0312,-1.0312,-1.0299,-1.0293,-1.028,-1.0273,-1.0267,-1.0258,-1.0247,-1.0238,-1.0231,-1.0218,-1.0202,-1.019,-1.0182,-1.0176,-1.0174,-1.0184,-1.0176,-1.0141,-1.0136,-1.013,-1.0129,-1.0184,-1.0184,-1.0213,-1.0213,-1.0213]},{"header":{"parameterUnit":"m.s-1","parameterCategory":1,"la1":30.2991,"la2":30.254,"lo1":-89.0895,"lo2":-89.0444,"dy":0.0017,"dx":0.0017,"nx":28,"ny":28,"refTime":"2025-02-09T03:00:00:Z","depth":0,"parameterNumber":3,"parameterNumberName":"V-component_of_WINDS"},"data":[0,0,0,0,0,0,0,0,0,0,0,0,0,0,0,0,0,0,0,0,0,0,0,0,0,0,0,0,0,0,0,0,0,0,0,0,0,0,0,0,0,0,0,0,0,0,0,0,0,0,0,0,0,0,0,0,0,0,2.5437,2.5436,0,2.54,2.5399,2.5399,2.5377,2.5377,2.5377,2.5376,2.5336,2.5335,2.5334,0,0,0,0,0,0,0,0,0,0,0,0,0,2.5487,2.5486,2.5437,2.5436,2.5436,2.54,2.5399,2.5399,2.5377,2.5377,2.5377,2.5376,2.5336,2.5335,2.5334,0,0,0,0,0,0,0,0,0,0,0,0,0,2.5459,2.5486,2.5437,2.5421,2.5419,2.54,2.5399,2.5398,2.5377,2.5377,2.5377,2.5376,2.5336,2.5335,2.5333,2.5327,0,0,2.5329,2.5328,0,0,0,0,0,0,0,0,2.5461,2.5457,2.5423,2.5422,2.542,2.5393,2.5402,2.5374,2.5377,2.5393,2.5376,2.5376,2.5355,2.5352,2.5345,2.5325,2.5323,2.5329,2.5328,2.5327,2.5327,0,0,0,0,0,0,0,2.5462,2.5459,2.5422,2.5423,2.5421,2.5415,2.5411,2.5397,2.5375,2.5391,2.539,2.5386,2.5353,2.5346,2.5344,2.5323,2.5329,2.5327,2.5326,2.5326,2.5297,2.5297,0,0,0,0,0,0,2.5467,2.546,2.5423,2.5421,2.544,2.5414,2.5409,2.5401,2.5375,2.5371,2.5386,2.5385,2.5349,2.5345,2.5342,2.5334,2.5327,2.5326,2.5325,2.5297,2.5297,2.5297,0,0,0,0,0,0,2.5468,2.5464,2.5425,2.544,2.5435,2.5413,2.5405,2.5401,2.5394,2.5371,2.5366,2.5383,2.5349,2.5344,2.5331,2.5332,2.5325,2.5324,2.5297,2.5297,2.5297,2.5316,0,0,0,0,0,0,2.547,2.5465,2.5462,2.544,2.5434,2.5415,2.5405,2.54,2.5391,2.539,2.5367,2.5363,2.5348,2.5334,2.533,2.533,2.5323,2.5297,2.5297,2.5297,2.5315,2.5317,2.5318,0,0,0,0,0,2.5472,2.5468,2.5462,2.5458,2.543,2.5415,2.5411,2.5396,2.5392,2.5389,2.5374,2.5363,2.5333,2.5333,2.5328,2.5327,2.5296,2.5297,2.5297,2.5315,2.5317,2.5318,0,0,0,0,0,0,2.5489,2.5465,2.5458,2.5447,2.5433,2.5411,2.5407,2.5398,2.5384,2.5383,2.5363,2.5358,2.5348,2.5336,2.5337,2.5321,2.5313,2.5313,2.5328,2.533,2.5332,2.5334,2.5321,0,0,0,0,0,2.5492,2.5482,2.5461,2.5453,2.5447,2.5428,2.5421,2.5411,2.5395,2.5389,2.5373,2.5358,2.5345,2.5337,2.5324,2.5314,2.5309,2.5311,2.5313,2.5314,2.5314,2.5309,2.531,2.5298,2.5298,2.5298,0,0,2.5497,2.5482,2.5477,2.5456,2.5445,2.5435,2.5423,2.5413,2.5405,2.5387,2.5374,2.5363,2.5344,2.5334,2.5328,2.5324,2.5316,2.5315,2.5316,2.5315,2.531,2.5311,2.5312,2.5298,2.5298,2.5298,0,0,2.5501,2.5489,2.5482,2.5471,2.5454,2.5442,2.544,2.542,2.5412,2.54,2.5386,2.5376,2.5354,2.5342,2.5333,2.5336,2.5325,2.5332,2.534,2.5335,2.5336,2.5337,2.5338,2.5339,2.5332,2.5332,2.5332,0,2.5509,2.5494,2.5479,2.547,2.5462,2.5446,2.5439,2.5429,2.5408,2.5402,2.5398,2.5372,2.5358,2.5345,2.5346,2.5339,2.5337,2.5334,2.5337,2.5338,2.5338,2.534,2.534,2.5333,2.5333,2.5332,2.5332,0,2.5505,2.5495,2.5492,2.5474,2.5465,2.5457,2.544,2.5433,2.5424,2.5413,2.5401,2.5385,2.5369,2.5365,2.5355,2.535,2.5349,2.5341,2.5334,2.5341,2.5342,2.5342,2.5334,2.5334,2.5333,2.5333,0,0,2.5517,2.5493,2.5492,2.5485,2.5466,2.5457,2.5449,2.5435,2.5429,2.5416,2.5408,2.5391,2.5385,2.5375,2.5364,2.536,2.5364,2.5353,2.5353,2.5356,2.536,2.5366,2.5366,2.5358,2.5358,2.5358,2.5362,0,2.5519,2.5504,2.5492,2.5481,2.5472,2.5459,2.5451,2.5439,2.5429,2.5419,2.5407,2.5396,2.5388,2.5382,2.5378,2.5365,2.5365,2.5364,2.535,2.535,2.5356,2.5367,2.5372,2.5377,2.5362,2.5362,2.5362,0,2.5518,2.5508,2.5497,2.5481,2.5476,2.547,2.5457,2.5448,2.5434,2.5427,2.5417,2.5406,2.5397,2.5391,2.5378,2.5378,2.5372,2.5365,2.5365,2.5363,2.5356,2.5365,2.5377,2.5378,2.5362,2.5362,2.5362,0,2.5529,2.5512,2.5504,2.5497,2.5478,2.5474,2.5466,2.5452,2.5445,2.5433,2.5428,2.5415,2.5408,2.5398,2.5384,2.5381,2.5373,2.5366,2.5367,2.5368,2.5366,2.5366,2.5377,2.5362,2.5362,2.5362,2.5362,0,2.5532,2.5526,2.5508,2.5503,2.5497,2.5482,2.5476,2.5466,2.5454,2.5447,2.5434,2.5428,2.541,2.5401,2.539,2.5382,2.5378,2.5372,2.5369,2.5373,2.5374,2.5369,2.5368,2.5362,2.5362,2.5362,2.5362,0,2.5543,2.5531,2.5521,2.5504,2.55,2.5496,2.5481,2.5476,2.5466,2.5457,2.5454,2.5438,2.5427,2.5412,2.5396,2.5389,2.5383,2.5378,2.5388,2.5386,2.5388,2.5388,2.5397,2.5397,2.5381,2.5381,2.5381,0,2.5546,2.5541,2.5525,2.552,2.5512,2.5504,2.5497,2.5483,2.5477,2.5462,2.5459,2.5447,2.5438,2.5421,2.5408,2.5396,2.5391,2.5395,2.5389,2.5394,2.5392,2.5392,2.5392,2.5396,2.5396,2.5396,2.5397,0,2.5552,2.5547,2.5538,2.5528,2.5521,2.5511,2.5502,2.5498,2.5482,2.5476,2.5466,2.5458,2.5444,2.5433,2.542,2.5411,2.5401,2.5399,2.5399,2.5402,2.5409,2.5406,2.5392,2.5398,2.5398,2.5398,2.5398,2.5398,2.5559,2.5555,2.5543,2.5534,2.5526,2.5518,2.5513,2.5503,2.5494,2.5482,2.5475,2.5465,2.5453,2.5435,2.5426,2.5419,2.5415,2.5414,2.5414,2.5414,2.5416,2.541,2.5416,2.5416,2.5416,2.5416,2.5416,0,2.5565,2.5557,2.5549,2.5537,2.5531,2.5524,2.5514,2.5508,2.55,2.549,2.5482,2.5471,2.5461,2.5448,2.5437,2.5433,2.5429,2.5431,2.5431,2.5429,2.542,2.5421,2.5435,2.5435,2.5435,2.5435,2.5435,2.5435,2.5567,2.556,2.5554,2.5544,2.5536,2.5528,2.5522,2.5515,2.5507,2.5496,2.5488,2.548,2.5469,2.5457,2.5448,2.5445,2.5441,2.5445,2.544,2.5431,2.5429,2.5428,2.5429,2.5444,2.5444,2.545,2.545,2.545]}]]